TimeHST,TemperatureF,Dew PointF,Humidity,Sea Level PressureIn,VisibilityMPH,Wind Direction,Wind SpeedMPH,Gust SpeedMPH,PrecipitationIn,Events,Conditions,WindDirDegrees,DateUTC
12:57 AM,77.5,66.9,70,29.99,10.0,NE,8.1,-,N/A,,Mostly Cloudy,50,2013-07-02 10:57:00
1:57 AM,77.5,64.9,65,29.97,10.0,ENE,5.8,-,N/A,,Scattered Clouds,60,2013-07-02 11:57:00
2:57 AM,76.8,66.9,71,29.96,10.0,NE,6.9,-,N/A,,Overcast,50,2013-07-02 12:57:00
3:57 AM,76.6,66.9,72,29.96,10.0,NNE,10.4,-,N/A,,Overcast,30,2013-07-02 13:57:00
4:57 AM,75.7,66.9,74,29.96,10.0,NE,6.9,-,N/A,,Mostly Cloudy,40,2013-07-02 14:57:00
5:57 AM,75.7,69.1,80,29.98,10.0,NE,10.4,-,N/A,,Mostly Cloudy,40,2013-07-02 15:57:00
6:20 AM,75.2,68.0,78,30.00,6.2,NE,11.5,18.4,N/A,,Mostly Cloudy,50,2013-07-02 16:20:00
6:39 AM,75.2,68.0,78,30.01,6.2,ENE,9.2,18.4,0.00,Rain,Light Rain,60,2013-07-02 16:39:00
6:57 AM,75.7,68.0,77,29.99,10.0,ENE,9.2,-,0.00,,Overcast,60,2013-07-02 16:57:00
7:57 AM,77.5,69.1,75,30.01,10.0,NE,8.1,-,N/A,,Mostly Cloudy,40,2013-07-02 17:57:00
8:57 AM,79.7,69.1,70,30.01,10.0,NE,11.5,17.3,N/A,,Mostly Cloudy,50,2013-07-02 18:57:00
9:57 AM,80.6,69.1,68,30.01,10.0,NNE,11.5,-,N/A,,Overcast,30,2013-07-02 19:57:00
10:57 AM,80.6,69.1,68,30.01,10.0,ENE,3.5,-,0.01,Rain,Rain,60,2013-07-02 20:57:00
11:57 AM,79.2,70.0,73,30.01,10.0,ENE,13.8,25.3,0.00,Rain,Light Rain,60,2013-07-02 21:57:00
12:57 PM,80.6,70.0,70,29.98,5.0,NE,6.9,-,0.00,,Haze,50,2013-07-02 22:57:00
1:57 PM,80.6,68.0,65,29.97,10.0,NE,8.1,-,0.00,,Mostly Cloudy,50,2013-07-02 23:57:00
2:57 PM,80.6,68.0,65,29.96,10.0,North,8.1,-,N/A,,Overcast,10,2013-07-03 00:57:00
3:57 PM,80.6,70.0,70,29.95,-9999.0,ENE,8.1,-,0.04,Rain,Light Rain,70,2013-07-03 01:57:00
4:57 PM,80.6,70.0,70,29.94,-9999.0,ENE,5.8,-,0.00,,Overcast,60,2013-07-03 02:57:00
5:57 PM,80.6,68.0,65,29.94,7.0,NE,4.6,-,N/A,,Mostly Cloudy,40,2013-07-03 03:57:00
6:57 PM,78.8,69.1,72,29.95,10.0,NE,9.2,-,N/A,,Mostly Cloudy,40,2013-07-03 04:57:00
7:57 PM,78.8,69.1,72,29.96,10.0,NE,6.9,-,N/A,,Mostly Cloudy,50,2013-07-03 05:57:00
8:57 PM,77.0,66.9,71,29.98,10.0,ENE,6.9,-,0.00,,Mostly Cloudy,60,2013-07-03 06:57:00
9:57 PM,75.2,68.0,78,29.99,10.0,ENE,6.9,-,N/A,,Mostly Cloudy,70,2013-07-03 07:57:00
10:57 PM,73.4,66.0,78,29.99,10.0,ENE,5.8,-,N/A,,Clear,70,2013-07-03 08:57:00
11:57 PM,73.4,66.9,80,29.98,10.0,East,8.1,-,N/A,,Scattered Clouds,80,2013-07-03 09:57:00